Location: ????????
(55.0559°N, 39.1270°E)
Time: 00:03:44
(UTC+00:00)

Cosmos 1727 Rocket - Pass Details

Date: 15 November 2025
Orbit: 961 x 995 km, 82.9° (Epoch: 12 December)

Event Time Altitude Azimuth Distance (km) Brightness Sun altitude
Exits shadow 01:07:35 58° 16° (NNE) 1,135 4.3 -32.2°
Drops below altitude 10° 01:12:32 10° 12° (NNE) 2,749 6.6 -31.5°
Sets 01:15:04 0° 12° (NNE) 3,706 7.3 -31.1°
